28.6°F
Current conditions from King Hill
Updated every 5 minutes
 
  Thursday April 17, 2014

Station Historical Data
Daily Summary for May 23, 2011 Units:  Metric    English   Both
« Previous Day
Next Day »
Daily Weekly Monthly Yearly Custom
  High: Low: Average:
Temperature: 19.4 °C 13.6 °C 16.2 °C
Dew Point: 15.3 °C 11.6 °C 13.6 °C
Humidity: 93% 76% 85%
Wind Speed: 29km/h 1.6km/h 13.4km/h
Wind Gust: 54.7km/h - -
Wind- - SSW
Pressure: 1013.4 hPa 1003.3 hPa -
Precipitation: 1 mm    
Historical Graphs
 
 
Tabular Data for May 23, 2011
Time Temperature Dew Point Pressure Wind Wind Speed Wind Gust Humidity Daily Rainfall
00:00 14.8 °C 12.8 °C 1013.4 hPa SSW 6.4 km/h 20.9 km/h 88% 0.3 mm
00:05 14.7 °C 12.9 °C 1013.4 hPa South 1.6 km/h 20.9 km/h 89% 0 mm
00:10 14.7 °C 12.9 °C 1013.4 hPa SSE 3.2 km/h 17.7 km/h 89% 0 mm
00:15 14.7 °C 12.9 °C 1013.4 hPa SSE 8 km/h 17.7 km/h 89% 0 mm
00:20 14.7 °C 12.9 °C 1013.1 hPa South 4.8 km/h 16.1 km/h 89% 0.3 mm
00:25 14.6 °C 12.8 °C 1013.1 hPa SSW 6.4 km/h 17.7 km/h 89% 0.3 mm
00:30 14.6 °C 12.8 °C 1013.1 hPa SSW 6.4 km/h 22.5 km/h 89% 0.3 mm
00:35 14.5 °C 12.9 °C 1013.1 hPa SSW 1.6 km/h 22.5 km/h 90% 0.3 mm
00:40 14.4 °C 12.8 °C 1013.1 hPa SSW 8 km/h 17.7 km/h 90% 0.3 mm
00:45 14.4 °C 12.8 °C 1013.1 hPa SSW 6.4 km/h 17.7 km/h 90% 0.3 mm
00:50 14.4 °C 12.8 °C 1013.1 hPa SSW 6.4 km/h 14.5 km/h 90% 0.3 mm
00:55 14.5 °C 12.9 °C 1013.1 hPa South 4.8 km/h 14.5 km/h 90% 0.3 mm
01:00 14.5 °C 12.9 °C 1013.1 hPa SW 4.8 km/h 14.5 km/h 90% 0.3 mm
01:05 14.5 °C 12.7 °C 1013.1 hPa SSW 3.2 km/h 14.5 km/h 89% 0.3 mm
01:10 14.6 °C 12.8 °C 1013.1 hPa SW 9.7 km/h 24.1 km/h 89% 0.3 mm
01:15 14.6 °C 12.8 °C 1013.1 hPa SSW 4.8 km/h 24.1 km/h 89% 0.3 mm
01:20 14.6 °C 12.7 °C 1013.1 hPa SSW 9.7 km/h 20.9 km/h 88% 0.3 mm
01:25 14.6 °C 12.7 °C 1013.1 hPa SSW 8 km/h 25.7 km/h 88% 0.3 mm
01:35 14.7 °C 12.5 °C 1013.1 hPa SSW 9.7 km/h 25.7 km/h 87% 0.3 mm
01:40 14.7 °C 12.5 °C 1012.8 hPa SSW 11.3 km/h 29 km/h 87% 0.3 mm
01:45 14.7 °C 12.5 °C 1012.8 hPa SSW 12.9 km/h 29 km/h 87% 0.3 mm
01:50 14.7 °C 12.5 °C 1012.8 hPa SSW 8 km/h 29 km/h 87% 0.3 mm
01:55 14.7 °C 12.5 °C 1012.8 hPa SSW 9.7 km/h 24.1 km/h 87% 0.3 mm
02:00 14.7 °C 12.5 °C 1012.4 hPa South 9.7 km/h 24.1 km/h 87% 0.3 mm
02:05 14.7 °C 12.6 °C 1012.4 hPa South 9.7 km/h 25.7 km/h 87% 0.3 mm
02:10 14.8 °C 12.6 °C 1012.8 hPa SSW 11.3 km/h 25.7 km/h 87% 0.3 mm
02:15 14.8 °C 12.5 °C 1012.4 hPa SSW 9.7 km/h 27.4 km/h 86% 0.3 mm
02:20 14.8 °C 12.5 °C 1012.4 hPa SSW 12.9 km/h 30.6 km/h 86% 0.3 mm
02:25 14.8 °C 12.5 °C 1012.4 hPa SW 14.5 km/h 30.6 km/h 86% 0.3 mm
02:30 14.9 °C 12.6 °C 1012.4 hPa SW 9.7 km/h 30.6 km/h 86% 0.3 mm
02:35 14.8 °C 12.5 °C 1012.1 hPa SSW 9.7 km/h 25.7 km/h 86% 0.3 mm
02:40 14.8 °C 12.5 °C 1012.1 hPa SW 9.7 km/h 22.5 km/h 86% 0.3 mm
02:45 14.8 °C 12.4 °C 1012.1 hPa SSW 12.9 km/h 30.6 km/h 86% 0.3 mm
02:50 14.8 °C 12.4 °C 1011.7 hPa SSW 12.9 km/h 30.6 km/h 86% 0.3 mm
02:55 14.7 °C 12.4 °C 1012.1 hPa SW 12.9 km/h 29 km/h 86% 0.3 mm
03:00 14.7 °C 12.3 °C 1012.1 hPa SW 8 km/h 29 km/h 86% 0.3 mm
03:10 14.6 °C 12.4 °C 1012.1 hPa SW 11.3 km/h 25.7 km/h 87% 0.3 mm
03:15 14.6 °C 12.4 °C 1012.1 hPa SW 16.1 km/h 33.8 km/h 87% 0.3 mm
03:20 14.6 °C 12.4 °C 1012.1 hPa SSW 9.7 km/h 33.8 km/h 87% 0.3 mm
03:25 14.5 °C 12.4 °C 1012.1 hPa SW 6.4 km/h 22.5 km/h 87% 0.3 mm
03:30 14.4 °C 12.3 °C 1012.1 hPa SW 8 km/h 29 km/h 87% 0.3 mm
03:35 14.4 °C 12.3 °C 1012.4 hPa SW 11.3 km/h 29 km/h 87% 0.3 mm
03:40 14.4 °C 12.3 °C 1012.1 hPa SW 8 km/h 27.4 km/h 87% 0.3 mm
03:45 14.4 °C 12.3 °C 1012.1 hPa SW 16.1 km/h 32.2 km/h 87% 0.3 mm
03:50 14.3 °C 12.4 °C 1012.4 hPa SSW 16.1 km/h 32.2 km/h 88% 0.3 mm
03:55 14.3 °C 12.4 °C 1012.4 hPa SW 11.3 km/h 30.6 km/h 88% 0.3 mm
04:00 14.3 °C 12.3 °C 1012.4 hPa SW 14.5 km/h 30.6 km/h 88% 0.3 mm
04:05 14.3 °C 12.3 °C 1012.4 hPa SSW 16.1 km/h 30.6 km/h 88% 0.3 mm
04:10 14.2 °C 12.3 °C 1012.4 hPa SSW 16.1 km/h 32.2 km/h 88% 0.3 mm
04:15 14.2 °C 12.2 °C 1012.4 hPa SW 9.7 km/h 32.2 km/h 88% 0.3 mm
04:20 14.1 °C 12.2 °C 1012.1 hPa SW 11.3 km/h 29 km/h 88% 0.3 mm
04:25 14.1 °C 12.2 °C 1012.4 hPa SSW 11.3 km/h 45.1 km/h 88% 0.3 mm
04:30 14.1 °C 12.1 °C 1012.4 hPa SSW 12.9 km/h 45.1 km/h 88% 0.3 mm
04:35 14.1 °C 12.1 °C 1012.4 hPa SSW 8 km/h 33.8 km/h 88% 0.3 mm
04:40 13.9 °C 12 °C 1012.4 hPa SSW 11.3 km/h 33.8 km/h 88% 0.3 mm
04:45 13.9 °C 12 °C 1012.4 hPa SSW 16.1 km/h 32.2 km/h 88% 0.3 mm
04:50 13.9 °C 11.8 °C 1012.4 hPa SSW 14.5 km/h 29 km/h 87% 0.3 mm
04:55 13.9 °C 11.9 °C 1012.4 hPa SSW 14.5 km/h 29 km/h 88% 0.3 mm
05:00 13.9 °C 11.9 °C 1012.4 hPa SSW 9.7 km/h 33.8 km/h 88% 0.3 mm
05:05 13.9 °C 11.9 °C 1012.4 hPa SSW 19.3 km/h 38.6 km/h 88% 0.3 mm
05:10 13.9 °C 11.9 °C 1012.4 hPa SSW 11.3 km/h 38.6 km/h 88% 0.3 mm
05:15 13.8 °C 11.7 °C 1012.1 hPa SSW 12.9 km/h 37 km/h 87% 0.3 mm
05:20 13.8 °C 11.7 °C 1012.1 hPa SSW 12.9 km/h 37 km/h 87% 0.3 mm
05:25 13.8 °C 11.8 °C 1012.1 hPa SSW 9.7 km/h 38.6 km/h 88% 0.3 mm
05:30 13.7 °C 11.8 °C 1012.1 hPa SSW 16.1 km/h 45.1 km/h 88% 0.3 mm
05:35 13.7 °C 11.8 °C 1012.1 hPa SSW 4.8 km/h 45.1 km/h 88% 0.3 mm
05:40 13.7 °C 11.7 °C 1012.1 hPa SSW 17.7 km/h 35.4 km/h 88% 0.3 mm
05:45 13.7 °C 11.7 °C 1011.7 hPa SSW 14.5 km/h 35.4 km/h 88% 0.3 mm
05:50 13.7 °C 11.7 °C 1011.7 hPa SSW 14.5 km/h 29 km/h 88% 0.3 mm
05:55 13.7 °C 11.7 °C 1012.1 hPa SSW 17.7 km/h 32.2 km/h 88% 0.3 mm
06:00 13.7 °C 11.7 °C 1012.1 hPa SW 11.3 km/h 33.8 km/h 88% 0.3 mm
06:05 13.6 °C 11.7 °C 1012.1 hPa SSW 12.9 km/h 45.1 km/h 88% 0.3 mm
06:15 13.6 °C 11.7 °C 1012.4 hPa SSW 17.7 km/h 35.4 km/h 88% 0.5 mm
06:20 13.6 °C 11.7 °C 1012.1 hPa SSW 11.3 km/h 38.6 km/h 88% 0.5 mm
06:25 13.6 °C 11.6 °C 1012.1 hPa SW 20.9 km/h 38.6 km/h 88% 0.5 mm
06:30 13.6 °C 11.6 °C 1012.1 hPa SSW 19.3 km/h 40.2 km/h 88% 0.5 mm
06:35 13.6 °C 11.6 °C 1012.1 hPa SSW 16.1 km/h 40.2 km/h 88% 0.5 mm
06:40 13.6 °C 11.7 °C 1011.7 hPa SSW 14.5 km/h 37 km/h 88% 0.5 mm
06:45 13.6 °C 11.7 °C 1011.7 hPa SSW 12.9 km/h 37 km/h 88% 0.5 mm
06:50 13.7 °C 11.7 °C 1011.7 hPa SSW 17.7 km/h 32.2 km/h 88% 0.5 mm
06:55 13.8 °C 11.9 °C 1011.7 hPa SSW 16.1 km/h 35.4 km/h 88% 0.5 mm
07:00 13.9 °C 12 °C 1011.7 hPa SSW 19.3 km/h 35.4 km/h 88% 0.5 mm
07:05 13.9 °C 12 °C 1012.1 hPa SSW 11.3 km/h 30.6 km/h 88% 0.5 mm
07:10 13.9 °C 11.9 °C 1012.1 hPa SSW 17.7 km/h 35.4 km/h 88% 0.5 mm
07:15 13.9 °C 11.9 °C 1011.7 hPa SSW 14.5 km/h 35.4 km/h 88% 0.5 mm
07:20 13.8 °C 11.9 °C 1011.7 hPa SSW 12.9 km/h 33.8 km/h 88% 0.5 mm
07:25 13.8 °C 11.9 °C 1012.1 hPa SSW 17.7 km/h 35.4 km/h 88% 0.5 mm
07:30 13.9 °C 12 °C 1011.7 hPa SSW 16.1 km/h 48.3 km/h 88% 0.5 mm
07:35 14.2 °C 12.3 °C 1012.1 hPa SSW 11.3 km/h 48.3 km/h 88% 0.5 mm
07:40 14.3 °C 12.2 °C 1012.1 hPa South 14.5 km/h 32.2 km/h 87% 0.5 mm
07:45 14.4 °C 12.3 °C 1011.7 hPa SSW 16.1 km/h 35.4 km/h 87% 0.5 mm
07:50 14.6 °C 12.4 °C 1012.1 hPa SSW 12.9 km/h 38.6 km/h 87% 0.5 mm
07:55 14.5 °C 12.2 °C 1011.7 hPa SSW 12.9 km/h 38.6 km/h 86% 0.5 mm
08:00 14.4 °C 12.1 °C 1011.7 hPa SW 16.1 km/h 32.2 km/h 86% 0.5 mm
08:10 14.3 °C 12.2 °C 1011.7 hPa SSW 16.1 km/h 35.4 km/h 87% 0.5 mm
08:15 14.4 °C 12.3 °C 1011.7 hPa SSW 17.7 km/h 35.4 km/h 87% 0.5 mm
08:20 14.8 °C 12.6 °C 1011.7 hPa SSW 16.1 km/h 35.4 km/h 87% 0.5 mm
08:25 14.9 °C 12.4 °C 1011.7 hPa SW 19.3 km/h 37 km/h 85% 0.5 mm
08:30 15 °C 12.5 °C 1011.4 hPa SW 22.5 km/h 37 km/h 85% 0.5 mm
08:35 15.3 °C 12.8 °C 1011.4 hPa SSW 17.7 km/h 37 km/h 85% 0.5 mm
08:40 15.6 °C 13.1 °C 1011.4 hPa SSW 16.1 km/h 37 km/h 85% 0.5 mm
08:45 15.7 °C 13 °C 1011.4 hPa SSW 16.1 km/h 37 km/h 84% 0.5 mm
08:50 15.7 °C 12.8 °C 1011.4 hPa SSW 17.7 km/h 43.5 km/h 83% 0.5 mm
08:55 15.8 °C 12.9 °C 1011.4 hPa SSW 22.5 km/h 43.5 km/h 83% 0.5 mm
09:00 15.9 °C 13 °C 1011.4 hPa SW 19.3 km/h 40.2 km/h 83% 0.5 mm
09:05 15.8 °C 12.9 °C 1011.1 hPa SSW 22.5 km/h 40.2 km/h 83% 0.5 mm
09:10 15.7 °C 12.8 °C 1010.7 hPa SSW 17.7 km/h 43.5 km/h 83% 0.5 mm
09:15 15.8 °C 12.9 °C 1010.7 hPa SW 19.3 km/h 43.5 km/h 83% 0.5 mm
09:20 15.9 °C 13.1 °C 1010.7 hPa SW 19.3 km/h 38.6 km/h 83% 0.5 mm
09:25 16 °C 13.1 °C 1010.7 hPa SW 20.9 km/h 38.6 km/h 83% 0.5 mm
09:30 15.9 °C 13.1 °C 1011.1 hPa SSW 11.3 km/h 35.4 km/h 83% 0.5 mm
09:35 15.7 °C 12.8 °C 1011.1 hPa SW 20.9 km/h 40.2 km/h 83% 0.5 mm
09:40 15.6 °C 12.9 °C 1011.1 hPa SSW 16.1 km/h 40.2 km/h 84% 0.5 mm
09:45 15.5 °C 12.8 °C 1011.1 hPa SSW 12.9 km/h 37 km/h 84% 0.5 mm
09:50 15.3 °C 12.7 °C 1011.1 hPa SSW 16.1 km/h 33.8 km/h 84% 0.5 mm
10:00 15.5 °C 13 °C 1010.7 hPa SSW 14.5 km/h 45.1 km/h 85% 0.5 mm
10:05 15.5 °C 13 °C 1010.7 hPa SSW 16.1 km/h 45.1 km/h 85% 0.5 mm
10:10 15.3 °C 12.8 °C 1010.4 hPa SSW 17.7 km/h 45.1 km/h 85% 0.5 mm
10:15 15.4 °C 12.9 °C 1010.7 hPa SSW 17.7 km/h 38.6 km/h 85% 0.5 mm
10:20 15.7 °C 12.8 °C 1010.7 hPa SSW 19.3 km/h 54.7 km/h 83% 0.5 mm
10:25 15.8 °C 12.9 °C 1010.4 hPa SSW 19.3 km/h 54.7 km/h 83% 0.5 mm
10:30 16.2 °C 13.4 °C 1010.4 hPa SSW 14.5 km/h 37 km/h 84% 0.5 mm
10:35 16.6 °C 13.8 °C 1010 hPa SSW 11.3 km/h 41.8 km/h 84% 0.5 mm
10:40 16.6 °C 13.5 °C 1010.4 hPa SW 16.1 km/h 41.8 km/h 82% 0.5 mm
10:45 16.2 °C 13.3 °C 1010 hPa SSW 20.9 km/h 41.8 km/h 83% 0.5 mm
10:50 16.2 °C 13.3 °C 1010.4 hPa SSW 17.7 km/h 41.8 km/h 83% 0.5 mm
10:55 16.4 °C 13.6 °C 1010 hPa SSW 19.3 km/h 38.6 km/h 83% 0.5 mm
11:00 17.1 °C 13.9 °C 1010 hPa SW 17.7 km/h 38.6 km/h 82% 0.5 mm
11:05 17.2 °C 13.9 °C 1010 hPa SW 19.3 km/h 48.3 km/h 81% 0.5 mm
11:10 17.1 °C 13.8 °C 1010 hPa SW 22.5 km/h 48.3 km/h 81% 0.5 mm
11:15 17.1 °C 14 °C 1010 hPa SSW 11.3 km/h 38.6 km/h 82% 0.5 mm
11:20 17.1 °C 13.6 °C 1010 hPa SSW 16.1 km/h 37 km/h 80% 0.5 mm
11:25 17.2 °C 14.1 °C 1010 hPa SSW 17.7 km/h 33.8 km/h 82% 0.5 mm
11:35 17.4 °C 14.2 °C 1010 hPa SSW 6.4 km/h 33.8 km/h 81% 0.5 mm
11:40 17.5 °C 14 °C 1010 hPa South 6.4 km/h 33.8 km/h 80% 0.5 mm
11:45 17.6 °C 14.3 °C 1010 hPa SSW 4.8 km/h 29 km/h 81% 0.5 mm
11:50 17.6 °C 14.3 °C 1010 hPa SSW 12.9 km/h 38.6 km/h 81% 0.5 mm
11:55 17.6 °C 14.3 °C 1010 hPa SW 20.9 km/h 38.6 km/h 81% 0.5 mm
12:00 17.9 °C 14.7 °C 1010 hPa SSW 12.9 km/h 38.6 km/h 81% 0.5 mm
12:05 18.2 °C 14.7 °C 1010 hPa SSW 12.9 km/h 40.2 km/h 80% 0.5 mm
12:10 18.1 °C 14.4 °C 1009.7 hPa SSW 20.9 km/h 40.2 km/h 79% 0.5 mm
12:15 17.9 °C 14.2 °C 1010 hPa SSW 20.9 km/h 40.2 km/h 79% 0.5 mm
12:20 17.9 °C 14.7 °C 1009.4 hPa SSW 9.7 km/h 40.2 km/h 81% 0.5 mm
12:25 17.9 °C 14.4 °C 1009.4 hPa SSW 16.1 km/h 33.8 km/h 80% 0.5 mm
12:30 18 °C 14.5 °C 1009.7 hPa SSW 12.9 km/h 33.8 km/h 80% 0.5 mm
12:40 17.9 °C 14.2 °C 1009.7 hPa SW 16.1 km/h 45.1 km/h 79% 0.5 mm
12:45 18.1 °C 14.6 °C 1009.4 hPa SSW 14.5 km/h 45.1 km/h 80% 0.5 mm
12:50 18.2 °C 14.5 °C 1009.7 hPa SW 16.1 km/h 38.6 km/h 79% 0.5 mm
12:55 18.1 °C 14.2 °C 1009.4 hPa SW 11.3 km/h 38.6 km/h 78% 0.5 mm
13:00 18.3 °C 14.8 °C 1009.4 hPa SW 17.7 km/h 40.2 km/h 80% 0.5 mm
13:05 18.6 °C 14.8 °C 1009.7 hPa SW 20.9 km/h 43.5 km/h 79% 0.5 mm
13:10 18.6 °C 14.2 °C 1009 hPa SSW 29 km/h 51.5 km/h 76% 0.5 mm
13:15 18.5 °C 15.2 °C 1009 hPa SSW 12.9 km/h 51.5 km/h 81% 0.5 mm
13:20 18.3 °C 14.4 °C 1009 hPa SSW 16.1 km/h 51.5 km/h 78% 0.5 mm
13:25 17.7 °C 14.1 °C 1009.4 hPa SSW 17.7 km/h 41.8 km/h 79% 0.5 mm
13:30 17.8 °C 14.6 °C 1009 hPa SW 16.1 km/h 41.8 km/h 81% 0.5 mm
13:40 17.7 °C 14.2 °C 1008.7 hPa SW 14.5 km/h 38.6 km/h 80% 0.5 mm
13:45 17.9 °C 14.4 °C 1009 hPa SSW 19.3 km/h 43.5 km/h 80% 0.5 mm
13:50 18.1 °C 14.2 °C 1009.4 hPa SSW 27.4 km/h 43.5 km/h 78% 0.5 mm
13:55 17.9 °C 14.3 °C 1009 hPa SW 24.1 km/h 43.5 km/h 79% 0.5 mm
14:00 17.9 °C 14.4 °C 1009.4 hPa SW 20.9 km/h 41.8 km/h 80% 0.5 mm
14:05 17.5 °C 14 °C 1009 hPa SW 20.9 km/h 41.8 km/h 80% 0.5 mm
14:10 17.3 °C 13.8 °C 1009.4 hPa SSW 22.5 km/h 46.7 km/h 80% 0.5 mm
14:15 17.3 °C 14 °C 1008.7 hPa SSW 14.5 km/h 46.7 km/h 81% 0.5 mm
14:20 17.4 °C 14.3 °C 1008.7 hPa SSW 22.5 km/h 45.1 km/h 82% 0.5 mm
14:25 17.4 °C 14.2 °C 1008.4 hPa SSW 19.3 km/h 45.1 km/h 81% 0.5 mm
14:30 17.3 °C 14.1 °C 1008.7 hPa South 17.7 km/h 38.6 km/h 81% 0.5 mm
14:35 17.3 °C 14.2 °C 1008.4 hPa South 12.9 km/h 46.7 km/h 82% 0.5 mm
14:40 17.3 °C 14.1 °C 1008.4 hPa SSW 19.3 km/h 46.7 km/h 81% 0.5 mm
14:45 17.6 °C 14.4 °C 1008 hPa SSW 12.9 km/h 45.1 km/h 82% 0.5 mm
14:50 18.2 °C 14.7 °C 1008 hPa SW 14.5 km/h 45.1 km/h 80% 0.5 mm
15:00 18.5 °C 15 °C 1008 hPa SSW 12.9 km/h 35.4 km/h 80% 0.5 mm
15:05 18.7 °C 15.2 °C 1007.7 hPa SSW 8 km/h 33.8 km/h 80% 0.5 mm
15:10 18.7 °C 14.8 °C 1007.7 hPa SSW 19.3 km/h 33.8 km/h 78% 0.5 mm
15:20 18.1 °C 14.3 °C 1007.3 hPa SSW 17.7 km/h 45.1 km/h 79% 0.5 mm
15:25 18.1 °C 14.4 °C 1007.3 hPa SSW 19.3 km/h 43.5 km/h 79% 0.5 mm
15:30 18.3 °C 14.8 °C 1007.3 hPa SSW 16.1 km/h 43.5 km/h 80% 0.5 mm
15:35 18.4 °C 14.7 °C 1007 hPa South 9.7 km/h 35.4 km/h 79% 0.5 mm
15:40 18.7 °C 15.2 °C 1007 hPa SSW 12.9 km/h 35.4 km/h 80% 0.5 mm
15:45 18.9 °C 15.2 °C 1007 hPa SSW 16.1 km/h 29 km/h 79% 0.5 mm
15:50 19.1 °C 15.3 °C 1007 hPa SSW 12.9 km/h 29 km/h 79% 0.5 mm
15:55 19.4 °C 15.3 °C 1007 hPa SW 9.7 km/h 29 km/h 77% 0.5 mm
16:00 19 °C 14.7 °C 1007.3 hPa SW 20.9 km/h 37 km/h 76% 0.5 mm
16:05 18.7 °C 14.9 °C 1007.3 hPa SSW 11.3 km/h 37 km/h 79% 0.5 mm
16:10 18.6 °C 14.8 °C 1007 hPa SW 16.1 km/h 37 km/h 79% 0.5 mm
16:15 18.4 °C 14.7 °C 1007 hPa SSW 12.9 km/h 38.6 km/h 79% 0.5 mm
16:20 18.4 °C 14.7 °C 1007 hPa SW 14.5 km/h 38.6 km/h 79% 0.5 mm
16:25 18.3 °C 14.6 °C 1007 hPa SSW 16.1 km/h 43.5 km/h 79% 0.5 mm
16:30 18.3 °C 14.6 °C 1007 hPa SSW 14.5 km/h 43.5 km/h 79% 0.5 mm
16:40 18.2 °C 14.4 °C 1007 hPa SSW 16.1 km/h 41.8 km/h 79% 0.5 mm
16:45 18.4 °C 14.9 °C 1006.7 hPa SSW 14.5 km/h 41.8 km/h 80% 0.5 mm
16:50 18.8 °C 15.1 °C 1006.3 hPa SSW 17.7 km/h 40.2 km/h 79% 0.5 mm
16:55 19 °C 14.9 °C 1006.3 hPa SSW 14.5 km/h 32.2 km/h 77% 0.5 mm
17:00 19.3 °C 15.3 °C 1006.3 hPa SSW 11.3 km/h 37 km/h 78% 0.5 mm
17:05 19.4 °C 15.1 °C 1006.3 hPa SSW 16.1 km/h 37 km/h 76% 0.5 mm
17:10 19 °C 14.9 °C 1006.3 hPa SSW 12.9 km/h 40.2 km/h 77% 0.5 mm
17:15 18.8 °C 14.9 °C 1006.3 hPa SSW 14.5 km/h 40.2 km/h 78% 0.5 mm
17:20 18.9 °C 15 °C 1006.3 hPa SSW 12.9 km/h 35.4 km/h 78% 0.5 mm
17:30 18.7 °C 14.8 °C 1006.3 hPa SSW 19.3 km/h 41.8 km/h 78% 0.5 mm
17:35 18.5 °C 14.8 °C 1006.7 hPa SSW 11.3 km/h 38.6 km/h 79% 0.5 mm
17:40 18.3 °C 14.6 °C 1007 hPa SSW 14.5 km/h 33.8 km/h 79% 0.5 mm
17:45 18.2 °C 14.7 °C 1006.7 hPa SW 14.5 km/h 33.8 km/h 80% 0.5 mm
17:55 18.3 °C 14.9 °C 1006.3 hPa SSW 8 km/h 30.6 km/h 81% 0.5 mm
18:00 18.6 °C 15.1 °C 1006.3 hPa SSW 12.9 km/h 30.6 km/h 80% 0.5 mm
18:05 18.9 °C 15.2 °C 1006 hPa SSW 11.3 km/h 35.4 km/h 79% 0.5 mm
18:10 19.1 °C 15.1 °C 1006.3 hPa SSW 14.5 km/h 35.4 km/h 78% 0.5 mm
18:15 19 °C 15.1 °C 1006 hPa South 6.4 km/h 35.4 km/h 78% 0.5 mm
18:25 18.8 °C 15.1 °C 1006 hPa SSW 11.3 km/h 35.4 km/h 79% 0.5 mm
18:30 18.7 °C 14.9 °C 1006 hPa SSW 16.1 km/h 32.2 km/h 79% 0.5 mm
18:35 18.6 °C 15.1 °C 1005.6 hPa SSW 12.9 km/h 33.8 km/h 80% 0.5 mm
18:40 18.4 °C 14.9 °C 1005.6 hPa SSW 14.5 km/h 37 km/h 80% 0.5 mm
18:45 18.3 °C 14.8 °C 1005.6 hPa SSW 9.7 km/h 43.5 km/h 80% 0.5 mm
18:50 18.1 °C 14.8 °C 1005.3 hPa SSW 12.9 km/h 43.5 km/h 81% 0.5 mm
18:55 18.1 °C 14.7 °C 1005.6 hPa SSW 17.7 km/h 37 km/h 81% 0.5 mm
19:00 17.9 °C 14.7 °C 1005.3 hPa SSW 16.1 km/h 37 km/h 81% 0.5 mm
19:05 17.8 °C 14.7 °C 1005.3 hPa SW 14.5 km/h 35.4 km/h 82% 0.5 mm
19:10 17.8 °C 14.7 °C 1005.3 hPa SSW 14.5 km/h 35.4 km/h 82% 0.5 mm
19:15 17.8 °C 14.7 °C 1005.3 hPa SSW 16.1 km/h 35.4 km/h 82% 0.5 mm
19:20 17.7 °C 14.6 °C 1005.3 hPa SW 14.5 km/h 32.2 km/h 82% 0.5 mm
19:25 17.6 °C 14.6 °C 1005.3 hPa SW 16.1 km/h 33.8 km/h 83% 0.5 mm
19:30 17.4 °C 14.5 °C 1005.3 hPa SSW 16.1 km/h 33.8 km/h 83% 0.5 mm
19:35 17.3 °C 14.6 °C 1005 hPa SSW 9.7 km/h 38.6 km/h 84% 0.5 mm
19:40 17.2 °C 14.4 °C 1005 hPa SW 17.7 km/h 38.6 km/h 84% 0.5 mm
19:45 17.1 °C 14.5 °C 1005 hPa SW 16.1 km/h 32.2 km/h 85% 0.5 mm
19:50 17 °C 14.4 °C 1005 hPa SSW 19.3 km/h 35.4 km/h 85% 0.5 mm
19:55 17.1 °C 14.5 °C 1005 hPa SW 17.7 km/h 35.4 km/h 85% 0.5 mm
20:00 17 °C 14.4 °C 1005 hPa SW 9.7 km/h 27.4 km/h 85% 0.5 mm
20:05 17 °C 14.4 °C 1005 hPa SW 4.8 km/h 24.1 km/h 85% 0.5 mm
20:10 16.9 °C 14.4 °C 1004.6 hPa SSW 9.7 km/h 24.1 km/h 85% 0.5 mm
20:15 16.9 °C 14.3 °C 1005 hPa SSW 12.9 km/h 32.2 km/h 85% 0.5 mm
20:20 16.8 °C 14.2 °C 1004.6 hPa South 3.2 km/h 32.2 km/h 85% 0.5 mm
20:25 16.7 °C 14.3 °C 1005 hPa SSW 9.7 km/h 24.1 km/h 86% 0.5 mm
20:30 16.7 °C 14.3 °C 1005 hPa SW 9.7 km/h 20.9 km/h 86% 0.5 mm
20:35 16.7 °C 14.3 °C 1005 hPa SW 8 km/h 25.7 km/h 86% 0.5 mm
20:40 16.7 °C 14.3 °C 1005 hPa SSW 1.6 km/h 25.7 km/h 86% 0.5 mm
20:45 16.7 °C 14.3 °C 1005 hPa SSW 9.7 km/h 29 km/h 86% 0.5 mm
20:50 16.7 °C 14.1 °C 1004.6 hPa SW 4.8 km/h 29 km/h 85% 0.5 mm
20:55 16.7 °C 14.2 °C 1004.6 hPa SSW 9.7 km/h 25.7 km/h 85% 0.5 mm
21:00 16.7 °C 14.2 °C 1005 hPa SSW 9.7 km/h 25.7 km/h 85% 0.5 mm
21:05 16.8 °C 14.2 °C 1005.3 hPa SSW 11.3 km/h 29 km/h 85% 0.5 mm
21:10 16.8 °C 14.2 °C 1005 hPa SSW 8 km/h 29 km/h 85% 0.5 mm
21:15 16.8 °C 14.2 °C 1005 hPa SSW 6.4 km/h 24.1 km/h 85% 0.5 mm
21:20 16.7 °C 14.2 °C 1005 hPa SSW 9.7 km/h 16.1 km/h 85% 0.5 mm
21:25 16.7 °C 14.1 °C 1005 hPa SSW 6.4 km/h 24.1 km/h 85% 0.5 mm
21:30 16.7 °C 14.1 °C 1005 hPa SSW 11.3 km/h 24.1 km/h 85% 0.5 mm
21:35 16.7 °C 14.1 °C 1005 hPa SSW 8 km/h 24.1 km/h 85% 0.5 mm
21:40 16.7 °C 14.2 °C 1005 hPa SSW 12.9 km/h 24.1 km/h 85% 0.5 mm
21:50 16.8 °C 14.2 °C 1005 hPa South 11.3 km/h 27.4 km/h 85% 0.5 mm
21:55 16.7 °C 14.6 °C 1005 hPa SSW 6.4 km/h 27.4 km/h 87% 0.5 mm
22:00 16.6 °C 14.4 °C 1005 hPa SSW 14.5 km/h 37 km/h 87% 0.5 mm
22:05 16.5 °C 14.5 °C 1004.6 hPa SSW 8 km/h 37 km/h 88% 0.5 mm
22:10 16.4 °C 14.4 °C 1005 hPa South 9.7 km/h 25.7 km/h 88% 0.5 mm
22:15 16.3 °C 14.5 °C 1004.6 hPa SSW 11.3 km/h 27.4 km/h 89% 0.5 mm
22:20 16.3 °C 14.4 °C 1004.6 hPa SSW 4.8 km/h 27.4 km/h 89% 0.8 mm
22:25 16.2 °C 14.6 °C 1004.6 hPa SSW 8 km/h 27.4 km/h 90% 0.8 mm
22:30 16.2 °C 14.6 °C 1004.3 hPa SW 12.9 km/h 30.6 km/h 90% 0.8 mm
22:35 16.2 °C 14.5 °C 1004.3 hPa SSW 6.4 km/h 30.6 km/h 90% 0.8 mm
22:40 16.2 °C 14.5 °C 1004.3 hPa SW 6.4 km/h 19.3 km/h 90% 1 mm
22:45 16.2 °C 14.6 °C 1004.3 hPa SW 12.9 km/h 33.8 km/h 90% 1 mm
22:50 16.3 °C 14.6 °C 1004.3 hPa SW 12.9 km/h 33.8 km/h 90% 1 mm
22:55 16.3 °C 14.7 °C 1003.9 hPa SW 16.1 km/h 33.8 km/h 90% 1 mm
23:00 16.3 °C 14.7 °C 1003.9 hPa SW 8 km/h 33.8 km/h 90% 1 mm
23:05 16.4 °C 14.6 °C 1003.6 hPa SW 8 km/h 30.6 km/h 89% 1 mm
23:10 16.4 °C 14.7 °C 1003.6 hPa SSW 16.1 km/h 30.6 km/h 90% 1 mm
23:15 16.3 °C 14.7 °C 1003.6 hPa SSW 11.3 km/h 27.4 km/h 90% 1 mm
23:20 16.3 °C 14.6 °C 1003.6 hPa SW 8 km/h 29 km/h 90% 1 mm
23:30 16.2 °C 14.6 °C 1003.6 hPa SW 9.7 km/h 37 km/h 90% 1 mm
23:35 16.1 °C 14.7 °C 1003.3 hPa SW 11.3 km/h 30.6 km/h 91% 1 mm
23:40 16 °C 14.7 °C 1003.3 hPa SSW 9.7 km/h 30.6 km/h 92% 1 mm
23:45 15.9 °C 14.7 °C 1003.3 hPa SW 3.2 km/h 25.7 km/h 92% 1 mm
23:50 15.9 °C 14.7 °C 1003.3 hPa SSW 8 km/h 20.9 km/h 92% 1 mm
23:55 16 °C 14.9 °C 1003.3 hPa SSW 6.4 km/h 19.3 km/h 93% 1 mm
Westford Weather
Compliments of Weather Underground

 
 
Current Radar Loop:

Copyright © WestfordWeather.net 2007-2014. All rights reserved.